This demonstration page uses our WeatherBlox Daily Observations layout. Learn more.

38.80484, -77.04692

Hourly Observations for August 19, 2019

Temp ( °F °C ) Dew Point ( °F °C ) Humidity (%) Winds ( mph kmh ) Pressure ( in mb ) Visibility ( mi km ) Precip ( " mm )
12:52 am 00:52 Mostly Cloudy 81 27.2 70 21.1 69 69 S 5 7 29.97 1015 10 16.09344 0 0
1:52 am 01:52 Partly Cloudy 80 26.7 72 22.2 76 76 Calm 29.97 1015 10 16.09344 0 0
2:52 am 02:52 Mostly Cloudy 80 26.7 74 23.3 82 82 S 6 9 29.94 1014 10 16.09344 0 0
3:52 am 03:52 Mostly Cloudy 79 26.1 74 23.3 85 85 S 6 9 29.94 1014 10 16.09344 0 0
4:52 am 04:52 Mostly Cloudy 78 25.6 74 23.3 87 87 S 5 7 29.97 1015 10 16.09344 0 0
5:52 am 05:52 Partly Cloudy 78 25.6 74 23.3 87 87 S 7 11 29.97 1015 10 16.09344 0 0
6:52 am 06:52 Partly Cloudy 78 25.6 74 23.3 87 87 S 7 11 29.97 1015 10 16.09344 0 0
7:52 am 07:52 Cloudy 79 26.1 74 23.3 85 85 S 6 9 29.97 1015 10 16.09344 0.001 0.001
8:52 am 08:52 Mostly Cloudy 82 27.8 74 23.3 77 77 Calm 30 1016 10 16.09344 0.001 0.001
9:52 am 09:52 Partly Cloudy 87 30.6 72 22.2 61 61 NW 8 13 30 1016 10 16.09344 0 0
10:52 am 10:52 Partly Cloudy 89 31.7 69 20.6 52 52 Calm 30 1016 10 16.09344 0 0
11:52 am 11:52 Partly Cloudy 91 32.8 72 22.2 54 54 SSE 8 13 30 1016 10 16.09344 0 0
12:52 pm 12:52 Partly Cloudy 94 34.4 71 21.7 48 48 SSE 7 11 29.97 1015 10 16.09344 0 0
1:52 pm 13:52 Mostly Cloudy 96 35.6 71 21.7 44 44 S 8 13 29.97 1015 10 16.09344 0 0
2:52 pm 14:52 Mostly Cloudy 97 36.1 68 20 39 39 VRB 3 6 29.94 1014 10 16.09344 0 0
3:52 pm 15:52 Mostly Cloudy 97 36.1 67 19.4 37 37 WNW 10 17 29.94 1014 10 16.09344 0 0
4:34 pm 16:34 Mostly Cloudy 90 32.2 67 19.4 47 47 VRB 7 11 29.97 1015 10 16.09344 0 0
4:43 pm 16:43 Mostly Cloudy with Thunderstorms 92 33.3 67 19.4 44 44 S 10 17 29.97 1015 10 16.09344 0 0
4:52 pm 16:52 Mostly Cloudy with Thunderstorms 91 32.8 67 19.4 45 45 S 9 15 29.94 1014 10 16.09344 0 0
5:00 pm 17:00 Mostly Cloudy with Nearby Thunderstorms 90 32.2 69 20.6 50 50 S 10 17 29.97 1015 10 16.09344 0 0
5:34 pm 17:34 Mostly Cloudy with Thunderstorms 91 32.8 68 20 47 47 Calm 29.94 1014 10 16.09344 0 0
5:52 pm 17:52 Mostly Cloudy with Thunderstorms 92 33.3 68 20 46 46 SSE 7 11 29.94 1014 10 16.09344 0 0
6:06 pm 18:06 Mostly Cloudy with Nearby Thunderstorms 91 32.8 70 21.1 50 50 S 5 7 29.94 1014 10 16.09344 0 0
6:32 pm 18:32 Mostly Cloudy 90 32.2 71 21.7 54 54 SSE 3 6 29.94 1014 10 16.09344 0 0
6:52 pm 18:52 Cloudy with Nearby Thunderstorms 88 31.1 74 23.3 63 63 S 12 19 29.94 1014 10 16.09344 0 0
7:52 pm 19:52 Mostly Cloudy with Nearby Thunderstorms 87 30.6 75 23.9 67 67 SSE 6 9 29.97 1015 10 16.09344 0 0
8:35 pm 20:35 Mostly Cloudy 87 30.6 71 21.7 59 59 SE 5 7 30 1016 10 16.09344 0 0
8:52 pm 20:52 Mostly Cloudy 87 30.6 72 22.2 61 61 Calm 29.97 1015 10 16.09344 0 0
9:52 pm 21:52 Mostly Cloudy 85 29.4 73 22.8 68 68 S 6 9 30 1016 10 16.09344 0 0
10:04 pm 22:04 Mostly Cloudy with Nearby Thunderstorms 84 28.9 74 23.3 72 72 S 3 6 30.03 1017 10 16.09344 0 0
10:32 pm 22:32 Mostly Cloudy with Thunderstorms 84 28.9 71 21.7 65 65 S 5 7 30.03 1017 10 16.09344 0 0
10:52 pm 22:52 Mostly Cloudy 85 29.4 70 21.1 61 61 WSW 6 9 30.03 1017 10 16.09344 0 0
11:01 pm 23:01 Cloudy with Thunderstorms 86 30 70 21.1 59 59 WNW 14 22 30.06 1018 10 16.09344 0 0
11:17 pm 23:17 Cloudy with Thunderstorms 82 27.8 68 20 63 63 NW 14 22 30.03 1017 10 16.09344 0 0
11:25 pm 23:25 Cloudy with Thunderstorms 82 27.8 66 18.9 58 58 WNW 5 7 30.03 1017 10 16.09344 0 0
11:52 pm 23:52 Cloudy 81 27.2 66 18.9 61 61 SSW 6 9 30 1016 10 16.09344 0 0

Powered by AerisWeather